Year,Month,Day,Hour,Minute,Value (Times are PST for windgust in km/hr)
2014,08,19,00,00,8.10
2014,08,19,00,01,3.20
2014,08,19,00,02,3.20
2014,08,19,00,03,3.20
2014,08,19,00,04,3.20
2014,08,19,00,05,1.60
2014,08,19,00,06,3.20
2014,08,19,00,07,4.80
2014,08,19,00,08,3.20
2014,08,19,00,09,3.20
2014,08,19,00,10,1.60
2014,08,19,00,11,3.20
2014,08,19,00,12,1.60
2014,08,19,00,13,1.60
2014,08,19,00,14,1.60
2014,08,19,00,15,1.60
2014,08,19,00,16,1.60
2014,08,19,00,17,0.00
2014,08,19,00,18,0.00
2014,08,19,00,19,0.00
2014,08,19,00,20,0.00
2014,08,19,00,21,0.00
2014,08,19,00,22,1.60
2014,08,19,00,23,3.20
2014,08,19,00,24,3.20
2014,08,19,00,25,1.60
2014,08,19,00,26,0.00
2014,08,19,00,27,0.00
2014,08,19,00,28,1.60
2014,08,19,00,29,1.60
2014,08,19,00,30,1.60
2014,08,19,00,31,1.60
2014,08,19,00,32,1.60
2014,08,19,00,33,1.60
2014,08,19,00,34,0.00
2014,08,19,00,35,0.00
2014,08,19,00,36,0.00
2014,08,19,00,37,0.00
2014,08,19,00,38,0.00
2014,08,19,00,39,0.00
2014,08,19,00,40,1.60
2014,08,19,00,41,1.60
2014,08,19,00,42,1.60
2014,08,19,00,43,1.60
2014,08,19,00,44,1.60
2014,08,19,00,45,0.00
2014,08,19,00,46,1.60
2014,08,19,00,47,0.00
2014,08,19,00,48,1.60
2014,08,19,00,49,1.60
2014,08,19,00,50,1.60
2014,08,19,00,51,1.60
2014,08,19,00,52,3.20
2014,08,19,00,53,1.60
2014,08,19,00,54,1.60
2014,08,19,00,55,0.00
2014,08,19,00,56,1.60
2014,08,19,00,57,0.00
2014,08,19,00,58,1.60
2014,08,19,00,59,1.60
2014,08,19,01,00,0.00
2014,08,19,01,01,0.00
2014,08,19,01,02,1.60
2014,08,19,01,03,0.00
2014,08,19,01,04,1.60
2014,08,19,01,05,0.00
2014,08,19,01,06,1.60
2014,08,19,01,07,1.60
2014,08,19,01,08,3.20
2014,08,19,01,09,3.20
2014,08,19,01,10,3.20
2014,08,19,01,11,1.60
2014,08,19,01,12,1.60
2014,08,19,01,13,1.60
2014,08,19,01,14,1.60
2014,08,19,01,15,1.60
2014,08,19,01,16,1.60
2014,08,19,01,17,3.20
2014,08,19,01,18,3.20
2014,08,19,01,19,1.60
2014,08,19,01,20,1.60
2014,08,19,01,21,1.60
2014,08,19,01,22,0.00
2014,08,19,01,23,1.60
2014,08,19,01,24,1.60
2014,08,19,01,25,0.00
2014,08,19,01,26,1.60
2014,08,19,01,27,3.20
2014,08,19,01,28,4.80
2014,08,19,01,29,4.80
2014,08,19,01,30,4.80
2014,08,19,01,31,4.80
2014,08,19,01,32,4.80
2014,08,19,01,33,4.80
2014,08,19,01,34,4.80
2014,08,19,01,35,3.20
2014,08,19,01,36,3.20
2014,08,19,01,37,3.20
2014,08,19,01,38,0.00
2014,08,19,01,39,0.00
2014,08,19,01,40,0.00
2014,08,19,01,41,0.00
2014,08,19,01,42,0.00
2014,08,19,01,43,0.00
2014,08,19,01,44,1.60
2014,08,19,01,45,1.60
2014,08,19,01,46,0.00
2014,08,19,01,47,0.00
2014,08,19,01,48,0.00
2014,08,19,01,49,0.00
2014,08,19,01,50,0.00
2014,08,19,01,51,0.00
2014,08,19,01,52,0.00
2014,08,19,01,53,0.00
2014,08,19,01,54,1.60
2014,08,19,01,55,0.00
2014,08,19,01,56,0.00
2014,08,19,01,57,0.00
2014,08,19,01,58,0.00
2014,08,19,01,59,0.00
2014,08,19,02,00,1.60
2014,08,19,02,01,1.60
2014,08,19,02,02,3.20
2014,08,19,02,03,3.20
2014,08,19,02,04,3.20
2014,08,19,02,05,3.20
2014,08,19,02,06,3.20
2014,08,19,02,07,3.20
2014,08,19,02,08,1.60
2014,08,19,02,09,0.00
2014,08,19,02,10,3.20
2014,08,19,02,11,4.80
2014,08,19,02,12,3.20
2014,08,19,02,13,4.80
2014,08,19,02,14,6.40
2014,08,19,02,15,6.40
2014,08,19,02,16,8.10
2014,08,19,02,17,9.60
2014,08,19,02,18,8.10
2014,08,19,02,19,8.10
2014,08,19,02,20,6.40
2014,08,19,02,21,4.80
2014,08,19,02,22,8.10
2014,08,19,02,23,9.60
2014,08,19,02,24,6.40
2014,08,19,02,25,3.20
2014,08,19,02,26,6.40
2014,08,19,02,27,6.40
2014,08,19,02,28,4.80
2014,08,19,02,29,4.80
2014,08,19,02,30,6.40
2014,08,19,02,31,4.80
2014,08,19,02,32,4.80
2014,08,19,02,33,4.80
2014,08,19,02,34,1.60
2014,08,19,02,35,3.20
2014,08,19,02,36,3.20
2014,08,19,02,37,1.60
2014,08,19,02,38,1.60
2014,08,19,02,39,1.60
2014,08,19,02,40,1.60
2014,08,19,02,41,1.60
2014,08,19,02,42,1.60
2014,08,19,02,43,3.20
2014,08,19,02,44,1.60
2014,08,19,02,45,0.00
2014,08,19,02,46,0.00
2014,08,19,02,47,0.00
2014,08,19,02,48,0.00
2014,08,19,02,49,0.00
2014,08,19,02,50,0.00
2014,08,19,02,51,0.00
2014,08,19,02,52,0.00
2014,08,19,02,53,0.00
2014,08,19,02,54,0.00
2014,08,19,02,55,0.00
2014,08,19,02,56,0.00
2014,08,19,02,57,0.00
2014,08,19,02,58,0.00
2014,08,19,02,59,0.00
2014,08,19,03,00,0.00
2014,08,19,03,01,0.00
2014,08,19,03,02,0.00
2014,08,19,03,03,1.60
2014,08,19,03,04,3.20
2014,08,19,03,05,1.60
2014,08,19,03,06,1.60
2014,08,19,03,07,3.20
2014,08,19,03,08,3.20
2014,08,19,03,09,1.60
2014,08,19,03,10,1.60
2014,08,19,03,11,1.60
2014,08,19,03,12,0.00
2014,08,19,03,13,1.60
2014,08,19,03,14,0.00
2014,08,19,03,15,1.60
2014,08,19,03,16,1.60
2014,08,19,03,17,1.60
2014,08,19,03,18,3.20
2014,08,19,03,19,4.80
2014,08,19,03,20,4.80
2014,08,19,03,21,3.20
2014,08,19,03,22,3.20
2014,08,19,03,23,3.20
2014,08,19,03,24,0.00
2014,08,19,03,25,0.00
2014,08,19,03,26,1.60
2014,08,19,03,27,0.00
2014,08,19,03,28,0.00
2014,08,19,03,29,0.00
2014,08,19,03,30,0.00
2014,08,19,03,31,0.00
2014,08,19,03,32,0.00
2014,08,19,03,33,0.00
2014,08,19,03,34,0.00
2014,08,19,03,35,3.20
2014,08,19,03,36,3.20
2014,08,19,03,37,4.80
2014,08,19,03,38,3.20
2014,08,19,03,39,3.20
2014,08,19,03,40,3.20
2014,08,19,03,41,1.60
2014,08,19,03,42,1.60
2014,08,19,03,43,1.60
2014,08,19,03,44,1.60
2014,08,19,03,45,1.60
2014,08,19,03,46,0.00
2014,08,19,03,47,0.00
2014,08,19,03,48,0.00
2014,08,19,03,49,0.00
2014,08,19,03,50,0.00
2014,08,19,03,51,0.00
2014,08,19,03,52,0.00
2014,08,19,03,53,3.20
2014,08,19,03,54,3.20
2014,08,19,03,55,1.60
2014,08,19,03,56,1.60
2014,08,19,03,57,1.60
2014,08,19,03,58,1.60
2014,08,19,03,59,1.60
2014,08,19,04,00,0.00
2014,08,19,04,01,0.00
2014,08,19,04,02,0.00
2014,08,19,04,03,1.60
2014,08,19,04,04,3.20
2014,08,19,04,05,0.00
2014,08,19,04,06,0.00
2014,08,19,04,07,0.00
2014,08,19,04,08,1.60
2014,08,19,04,09,0.00
2014,08,19,04,10,1.60
2014,08,19,04,11,3.20
2014,08,19,04,12,4.80
2014,08,19,04,13,6.40
2014,08,19,04,14,6.40
2014,08,19,04,15,3.20
2014,08,19,04,16,3.20
2014,08,19,04,17,3.20
2014,08,19,04,18,3.20
2014,08,19,04,19,3.20
2014,08,19,04,20,3.20
2014,08,19,04,21,1.60
2014,08,19,04,22,3.20
2014,08,19,04,23,3.20
2014,08,19,04,24,3.20
2014,08,19,04,25,1.60
2014,08,19,04,26,3.20
2014,08,19,04,27,3.20
2014,08,19,04,28,4.80
2014,08,19,04,29,4.80
2014,08,19,04,30,3.20
2014,08,19,04,31,3.20
2014,08,19,04,32,4.80
2014,08,19,04,33,4.80
2014,08,19,04,34,4.80
2014,08,19,04,35,3.20
2014,08,19,04,36,4.80
2014,08,19,04,37,3.20
2014,08,19,04,38,8.10
2014,08,19,04,39,6.40
2014,08,19,04,40,6.40
2014,08,19,04,41,4.80
2014,08,19,04,42,4.80
2014,08,19,04,43,4.80
2014,08,19,04,44,4.80
2014,08,19,04,45,4.80
2014,08,19,04,46,3.20
2014,08,19,04,47,3.20
2014,08,19,04,48,3.20
2014,08,19,04,49,3.20
2014,08,19,04,50,1.60
2014,08,19,04,51,3.20
2014,08,19,04,52,1.60
2014,08,19,04,53,1.60
2014,08,19,04,54,1.60
2014,08,19,04,55,1.60
2014,08,19,04,56,0.00
2014,08,19,04,57,0.00
2014,08,19,04,58,0.00
2014,08,19,04,59,1.60
2014,08,19,05,00,1.60
2014,08,19,05,01,1.60
2014,08,19,05,02,1.60
2014,08,19,05,03,1.60
2014,08,19,05,04,1.60
2014,08,19,05,05,1.60
2014,08,19,05,06,0.00
2014,08,19,05,07,0.00
2014,08,19,05,08,1.60
2014,08,19,05,09,0.00
2014,08,19,05,10,1.60
2014,08,19,05,11,0.00
2014,08,19,05,12,1.60
2014,08,19,05,13,3.20
2014,08,19,05,14,1.60
2014,08,19,05,15,1.60
2014,08,19,05,16,0.00
2014,08,19,05,17,1.60
2014,08,19,05,18,1.60
2014,08,19,05,19,0.00
2014,08,19,05,20,0.00
2014,08,19,05,21,1.60
2014,08,19,05,22,1.60
2014,08,19,05,23,1.60
2014,08,19,05,24,3.20
2014,08,19,05,25,3.20
2014,08,19,05,26,3.20
2014,08,19,05,27,4.80
2014,08,19,05,28,9.60
2014,08,19,05,29,9.60
2014,08,19,05,30,9.60
2014,08,19,05,31,11.30
2014,08,19,05,32,11.30
2014,08,19,05,33,11.30
2014,08,19,05,34,9.60
2014,08,19,05,35,9.60
2014,08,19,05,36,8.10
2014,08,19,05,37,9.60
2014,08,19,05,38,8.10
2014,08,19,05,39,8.10
2014,08,19,05,40,6.40
2014,08,19,05,41,8.10
2014,08,19,05,42,4.80
2014,08,19,05,43,3.20
2014,08,19,05,44,4.80
2014,08,19,05,45,3.20
2014,08,19,05,46,3.20
2014,08,19,05,47,3.20
2014,08,19,05,48,4.80
2014,08,19,05,49,6.40
2014,08,19,05,50,6.40
2014,08,19,05,51,11.30
2014,08,19,05,52,12.90
2014,08,19,05,53,14.50
2014,08,19,05,54,11.30
2014,08,19,05,55,11.30
2014,08,19,05,56,12.90
2014,08,19,05,57,9.60
2014,08,19,05,58,11.30
2014,08,19,05,59,14.50
2014,08,19,06,00,11.30
2014,08,19,06,01,14.50
2014,08,19,06,02,12.90
2014,08,19,06,03,14.50
2014,08,19,06,04,16.10
2014,08,19,06,05,16.10
2014,08,19,06,06,16.10
2014,08,19,06,07,16.10
2014,08,19,06,08,14.50
2014,08,19,06,09,11.30
2014,08,19,06,10,8.10
2014,08,19,06,11,4.80
2014,08,19,06,12,4.80
2014,08,19,06,13,3.20
2014,08,19,06,14,3.20
2014,08,19,06,15,1.60
2014,08,19,06,16,1.60
2014,08,19,06,17,1.60
2014,08,19,06,18,0.00
2014,08,19,06,19,1.60
2014,08,19,06,20,1.60
2014,08,19,06,21,0.00
2014,08,19,06,22,0.00
2014,08,19,06,23,0.00
2014,08,19,06,24,0.00
2014,08,19,06,25,1.60
2014,08,19,06,26,1.60
2014,08,19,06,27,3.20
2014,08,19,06,28,3.20
2014,08,19,06,29,4.80
2014,08,19,06,30,3.20
2014,08,19,06,31,3.20
2014,08,19,06,32,3.20
2014,08,19,06,33,3.20
2014,08,19,06,34,1.60
2014,08,19,06,35,1.60
2014,08,19,06,36,0.00
2014,08,19,06,37,0.00
2014,08,19,06,38,3.20
2014,08,19,06,39,4.80
2014,08,19,06,40,3.20
2014,08,19,06,41,3.20
2014,08,19,06,42,3.20
2014,08,19,06,43,3.20
2014,08,19,06,44,1.60
2014,08,19,06,45,0.00
2014,08,19,06,46,0.00
2014,08,19,06,47,0.00
2014,08,19,06,48,1.60
2014,08,19,06,49,0.00
2014,08,19,06,50,0.00
2014,08,19,06,51,0.00
2014,08,19,06,52,1.60
2014,08,19,06,53,3.20
2014,08,19,06,54,1.60
2014,08,19,06,55,1.60
2014,08,19,06,56,1.60
2014,08,19,06,57,1.60
2014,08,19,06,58,1.60
2014,08,19,06,59,1.60
2014,08,19,07,00,1.60
2014,08,19,07,01,3.20
2014,08,19,07,02,3.20
2014,08,19,07,03,0.00
2014,08,19,07,04,1.60
2014,08,19,07,05,1.60
2014,08,19,07,06,1.60
2014,08,19,07,07,0.00
2014,08,19,07,08,1.60
2014,08,19,07,09,8.10
2014,08,19,07,10,0.00
2014,08,19,07,11,0.00
2014,08,19,07,12,1.60
2014,08,19,07,13,0.00
2014,08,19,07,14,0.00
2014,08,19,07,15,0.00
2014,08,19,07,16,0.00
2014,08,19,07,17,0.00
2014,08,19,07,18,0.00
2014,08,19,07,19,0.00
2014,08,19,07,20,0.00
2014,08,19,07,21,0.00
2014,08,19,07,22,3.20
2014,08,19,07,23,6.40
2014,08,19,07,24,6.40
2014,08,19,07,25,3.20
2014,08,19,07,26,1.60
2014,08,19,07,27,3.20
2014,08,19,07,28,1.60
2014,08,19,07,29,3.20
2014,08,19,07,30,6.40
2014,08,19,07,31,4.80
2014,08,19,07,32,4.80
2014,08,19,07,33,4.80
2014,08,19,07,34,3.20
2014,08,19,07,35,3.20
2014,08,19,07,36,4.80
2014,08,19,07,37,0.00
2014,08,19,07,38,1.60
2014,08,19,07,39,1.60
2014,08,19,07,40,1.60
2014,08,19,07,41,1.60
2014,08,19,07,42,1.60
2014,08,19,07,43,1.60
2014,08,19,07,44,4.80
2014,08,19,07,45,1.60
2014,08,19,07,46,1.60
2014,08,19,07,47,4.80
2014,08,19,07,48,1.60
2014,08,19,07,49,1.60
2014,08,19,07,50,1.60
2014,08,19,07,51,0.00
2014,08,19,07,52,1.60
2014,08,19,07,53,1.60
2014,08,19,07,54,1.60
2014,08,19,07,55,1.60
2014,08,19,07,56,1.60
2014,08,19,07,57,0.00
2014,08,19,07,58,1.60
2014,08,19,07,59,1.60
2014,08,19,08,00,0.00
2014,08,19,08,01,0.00
2014,08,19,08,02,1.60
2014,08,19,08,03,3.20
2014,08,19,08,04,6.40
2014,08,19,08,05,4.80
2014,08,19,08,06,3.20
2014,08,19,08,07,3.20
2014,08,19,08,08,4.80
2014,08,19,08,09,6.40
2014,08,19,08,10,3.20
2014,08,19,08,11,4.80
2014,08,19,08,12,3.20
2014,08,19,08,13,3.20
2014,08,19,08,14,6.40
2014,08,19,08,15,4.80
2014,08,19,08,16,3.20
2014,08,19,08,17,4.80
2014,08,19,08,18,9.60
2014,08,19,08,19,4.80
2014,08,19,08,20,3.20
2014,08,19,08,21,3.20
2014,08,19,08,22,4.80
2014,08,19,08,23,3.20
2014,08,19,08,24,9.60
2014,08,19,08,25,4.80
2014,08,19,08,26,4.80
2014,08,19,08,27,11.30
2014,08,19,08,28,6.40
2014,08,19,08,29,8.10
2014,08,19,08,30,6.40
2014,08,19,08,31,9.60
2014,08,19,08,32,4.80
2014,08,19,08,33,4.80
2014,08,19,08,34,3.20
2014,08,19,08,35,3.20
2014,08,19,08,36,3.20
2014,08,19,08,37,3.20
2014,08,19,08,38,3.20
2014,08,19,08,39,3.20
2014,08,19,08,40,3.20
2014,08,19,08,41,4.80
2014,08,19,08,42,4.80
2014,08,19,08,43,1.60
2014,08,19,08,44,1.60
2014,08,19,08,45,0.00
2014,08,19,08,46,6.40
2014,08,19,08,47,1.60
2014,08,19,08,48,1.60
2014,08,19,08,49,3.20
2014,08,19,08,50,3.20
2014,08,19,08,51,3.20
2014,08,19,08,52,4.80
2014,08,19,08,53,0.00
2014,08,19,08,54,0.00
2014,08,19,08,55,1.60
2014,08,19,08,56,1.60
2014,08,19,08,57,1.60
2014,08,19,08,58,0.00
2014,08,19,08,59,1.60
2014,08,19,09,00,1.60
2014,08,19,09,01,1.60
2014,08,19,09,02,1.60
2014,08,19,09,03,1.60
2014,08,19,09,04,0.00
2014,08,19,09,05,4.80
2014,08,19,09,06,4.80
2014,08,19,09,07,6.40
2014,08,19,09,08,1.60
2014,08,19,09,09,1.60
2014,08,19,09,10,0.00
2014,08,19,09,11,1.60
2014,08,19,09,12,1.60
2014,08,19,09,13,0.00
2014,08,19,09,14,1.60
2014,08,19,09,15,0.00
2014,08,19,09,16,4.80
2014,08,19,09,17,1.60
2014,08,19,09,18,1.60
2014,08,19,09,19,1.60
2014,08,19,09,20,1.60
2014,08,19,09,21,1.60
2014,08,19,09,22,1.60
2014,08,19,09,23,6.40
2014,08,19,09,24,6.40
2014,08,19,09,25,6.40
2014,08,19,09,26,14.50
2014,08,19,09,27,8.10
2014,08,19,09,28,8.10
2014,08,19,09,29,6.40
2014,08,19,09,30,4.80
2014,08,19,09,31,6.40
2014,08,19,09,32,9.60
2014,08,19,09,33,16.10
2014,08,19,09,34,19.30
2014,08,19,09,35,12.90
2014,08,19,09,36,8.10
2014,08,19,09,37,8.10
2014,08,19,09,38,3.20
2014,08,19,09,39,4.80
2014,08,19,09,40,1.60
2014,08,19,09,41,4.80
2014,08,19,09,42,8.10
2014,08,19,09,43,17.70
2014,08,19,09,44,6.40
2014,08,19,09,45,6.40
2014,08,19,09,46,3.20
2014,08,19,09,47,3.20
2014,08,19,09,48,17.70
2014,08,19,09,49,8.10
2014,08,19,09,50,4.80
2014,08,19,09,51,17.70
2014,08,19,09,52,16.10
2014,08,19,09,53,14.50
2014,08,19,09,54,11.30
2014,08,19,09,55,14.50
2014,08,19,09,56,6.40
2014,08,19,09,57,9.60
2014,08,19,09,58,11.30
2014,08,19,09,59,9.60
2014,08,19,10,00,16.10
2014,08,19,10,01,11.30
2014,08,19,10,02,11.30
2014,08,19,10,03,11.30
2014,08,19,10,04,6.40
2014,08,19,10,05,9.60
2014,08,19,10,06,11.30
2014,08,19,10,07,11.30
2014,08,19,10,08,17.70
2014,08,19,10,09,11.30
2014,08,19,10,10,9.60
2014,08,19,10,11,8.10
2014,08,19,10,12,8.10
2014,08,19,10,13,6.40
2014,08,19,10,14,4.80
2014,08,19,10,15,9.60
2014,08,19,10,16,11.30
2014,08,19,10,17,6.40
2014,08,19,10,18,4.80
2014,08,19,10,19,17.70
2014,08,19,10,20,19.30
2014,08,19,10,21,12.90
2014,08,19,10,22,17.70
2014,08,19,10,23,8.10
2014,08,19,10,24,11.30
2014,08,19,10,25,8.10
2014,08,19,10,26,9.60
2014,08,19,10,27,9.60
2014,08,19,10,28,17.70
2014,08,19,10,29,14.50
2014,08,19,10,30,19.30
2014,08,19,10,31,14.50
2014,08,19,10,32,16.10
2014,08,19,10,33,17.70
2014,08,19,10,34,20.90
2014,08,19,10,35,20.90
2014,08,19,10,36,14.50
2014,08,19,10,37,11.30
2014,08,19,10,38,19.30
2014,08,19,10,39,16.10
2014,08,19,10,40,17.70
2014,08,19,10,41,16.10
2014,08,19,10,42,20.90
2014,08,19,10,43,22.50
2014,08,19,10,44,27.40
2014,08,19,10,45,27.40
2014,08,19,10,46,20.90
2014,08,19,10,47,11.30
2014,08,19,10,48,9.60
2014,08,19,10,49,12.90
2014,08,19,10,50,14.50
2014,08,19,10,51,19.30
2014,08,19,10,52,24.20
2014,08,19,10,53,22.50
2014,08,19,10,54,20.90
2014,08,19,10,55,19.30
2014,08,19,10,56,27.40
2014,08,19,10,57,24.20
2014,08,19,10,58,24.20
2014,08,19,10,59,25.70
2014,08,19,11,00,27.40
2014,08,19,11,01,29.00
2014,08,19,11,02,29.00
2014,08,19,11,03,29.00
2014,08,19,11,04,25.70
2014,08,19,11,05,27.40
2014,08,19,11,06,25.70
2014,08,19,11,07,24.20
2014,08,19,11,08,24.20
2014,08,19,11,09,33.80
2014,08,19,11,10,22.50
2014,08,19,11,11,22.50
2014,08,19,11,12,24.20
2014,08,19,11,13,24.20
2014,08,19,11,14,29.00
2014,08,19,11,15,25.70
2014,08,19,11,16,25.70
2014,08,19,11,17,25.70
2014,08,19,11,18,30.60
2014,08,19,11,19,16.10
2014,08,19,11,20,24.20
2014,08,19,11,21,27.40
2014,08,19,11,22,32.20
2014,08,19,11,23,29.00
2014,08,19,11,24,30.60
2014,08,19,11,25,27.40
2014,08,19,11,26,24.20
2014,08,19,11,27,17.70
2014,08,19,11,28,27.40
2014,08,19,11,29,22.50
2014,08,19,11,30,22.50
2014,08,19,11,31,19.30
2014,08,19,11,32,22.50
2014,08,19,11,33,19.30
2014,08,19,11,34,19.30
2014,08,19,11,35,27.40
2014,08,19,11,36,16.10
2014,08,19,11,37,17.70
2014,08,19,11,38,22.50
2014,08,19,11,39,22.50
2014,08,19,11,40,24.20
2014,08,19,11,41,24.20
2014,08,19,11,42,25.70
2014,08,19,11,43,27.40
2014,08,19,11,44,19.30
2014,08,19,11,45,22.50
2014,08,19,11,46,22.50
2014,08,19,11,47,20.90
2014,08,19,11,48,22.50
2014,08,19,11,49,25.70
2014,08,19,11,50,14.50
2014,08,19,11,51,17.70
2014,08,19,11,52,24.20
2014,08,19,11,53,16.10
2014,08,19,11,54,17.70
2014,08,19,11,55,17.70
2014,08,19,11,56,20.90
2014,08,19,11,57,20.90
2014,08,19,11,58,17.70
2014,08,19,11,59,24.20
2014,08,19,12,00,17.70
2014,08,19,12,01,19.30
2014,08,19,12,02,14.50
2014,08,19,12,03,20.90
2014,08,19,12,04,20.90
2014,08,19,12,05,22.50
2014,08,19,12,06,17.70
2014,08,19,12,07,24.20
2014,08,19,12,08,17.70
2014,08,19,12,09,25.70
2014,08,19,12,10,22.50
2014,08,19,12,11,22.50
2014,08,19,12,12,25.70
2014,08,19,12,13,24.20
2014,08,19,12,14,20.90
2014,08,19,12,15,17.70
2014,08,19,12,16,20.90
2014,08,19,12,17,16.10
2014,08,19,12,18,16.10
2014,08,19,12,19,27.40
2014,08,19,12,20,22.50
2014,08,19,12,21,20.90
2014,08,19,12,22,25.70
2014,08,19,12,23,25.70
2014,08,19,12,24,24.20
2014,08,19,12,25,24.20
2014,08,19,12,26,24.20
2014,08,19,12,27,24.20
2014,08,19,12,28,22.50
2014,08,19,12,29,24.20
2014,08,19,12,30,24.20
2014,08,19,12,31,24.20
2014,08,19,12,32,19.30
2014,08,19,12,33,20.90
2014,08,19,12,34,24.20
2014,08,19,12,35,27.40
2014,08,19,12,36,24.20
2014,08,19,12,37,17.70
2014,08,19,12,38,27.40
2014,08,19,12,39,29.00
2014,08,19,12,40,25.70
2014,08,19,12,41,27.40
2014,08,19,12,42,24.20
2014,08,19,12,43,24.20
2014,08,19,12,44,27.40
2014,08,19,12,45,20.90
2014,08,19,12,46,20.90
2014,08,19,12,47,24.20
2014,08,19,12,48,24.20
2014,08,19,12,49,24.20
2014,08,19,12,50,25.70
2014,08,19,12,51,27.40
2014,08,19,12,52,29.00
2014,08,19,12,53,30.60
2014,08,19,12,54,29.00
2014,08,19,12,55,32.20
2014,08,19,12,56,30.60
2014,08,19,12,57,32.20
2014,08,19,12,58,35.40
2014,08,19,12,59,37.00
2014,08,19,13,00,37.00
2014,08,19,13,01,32.20
2014,08,19,13,02,29.00
2014,08,19,13,03,32.20
2014,08,19,13,04,29.00
2014,08,19,13,05,30.60
2014,08,19,13,06,35.40
2014,08,19,13,07,29.00
2014,08,19,13,08,30.60
2014,08,19,13,09,32.20
2014,08,19,13,10,33.80
2014,08,19,13,11,33.80
2014,08,19,13,12,30.60
2014,08,19,13,13,33.80
2014,08,19,13,14,40.20
2014,08,19,13,15,38.60
2014,08,19,13,16,29.00
2014,08,19,13,17,27.40
2014,08,19,13,18,29.00
2014,08,19,13,19,32.20
2014,08,19,13,20,38.60
2014,08,19,13,21,27.40
2014,08,19,13,22,37.00
2014,08,19,13,23,32.20
2014,08,19,13,24,35.40
2014,08,19,13,25,32.20
2014,08,19,13,26,40.20
2014,08,19,13,27,35.40
2014,08,19,13,28,37.00
2014,08,19,13,29,37.00
2014,08,19,13,30,29.00
2014,08,19,13,31,30.60
2014,08,19,13,32,32.20
2014,08,19,13,33,33.80
2014,08,19,13,34,25.70
2014,08,19,13,35,32.20
2014,08,19,13,36,27.40
2014,08,19,13,37,30.60
2014,08,19,13,38,27.40
2014,08,19,13,39,29.00
2014,08,19,13,40,29.00
2014,08,19,13,41,27.40
2014,08,19,13,42,27.40
2014,08,19,13,43,33.80
2014,08,19,13,44,32.20
2014,08,19,13,45,29.00
2014,08,19,13,46,29.00
2014,08,19,13,47,27.40
2014,08,19,13,48,29.00
2014,08,19,13,49,30.60
2014,08,19,13,50,37.00
2014,08,19,13,51,29.00
2014,08,19,13,52,24.20
2014,08,19,13,53,25.70
2014,08,19,13,54,27.40
2014,08,19,13,55,32.20
2014,08,19,13,56,27.40
2014,08,19,13,57,37.00
2014,08,19,13,58,32.20
2014,08,19,13,59,35.40
2014,08,19,14,00,32.20
2014,08,19,14,01,41.80
2014,08,19,14,02,37.00
2014,08,19,14,03,35.40
2014,08,19,14,04,33.80
2014,08,19,14,05,33.80
2014,08,19,14,06,29.00
2014,08,19,14,07,29.00
2014,08,19,14,08,33.80
2014,08,19,14,09,32.20
2014,08,19,14,10,29.00
2014,08,19,14,11,30.60
2014,08,19,14,12,29.00
2014,08,19,14,13,25.70
2014,08,19,14,14,22.50
2014,08,19,14,15,30.60
2014,08,19,14,16,32.20
2014,08,19,14,17,27.40
2014,08,19,14,18,27.40
2014,08,19,14,19,30.60
2014,08,19,14,20,30.60
2014,08,19,14,21,29.00
2014,08,19,14,22,25.70
2014,08,19,14,23,30.60
2014,08,19,14,24,25.70
2014,08,19,14,25,30.60
2014,08,19,14,26,32.20
2014,08,19,14,27,33.80
2014,08,19,14,28,29.00
2014,08,19,14,29,24.20
2014,08,19,14,30,20.90
2014,08,19,14,31,27.40
2014,08,19,14,32,33.80
2014,08,19,14,33,27.40
2014,08,19,14,34,25.70
2014,08,19,14,35,25.70
2014,08,19,14,36,30.60
2014,08,19,14,37,29.00
2014,08,19,14,38,30.60
2014,08,19,14,39,32.20
2014,08,19,14,40,30.60
2014,08,19,14,41,32.20
2014,08,19,14,42,27.40
2014,08,19,14,43,27.40
2014,08,19,14,44,30.60
2014,08,19,14,45,33.80
2014,08,19,14,46,33.80
2014,08,19,14,47,29.00
2014,08,19,14,48,33.80
2014,08,19,14,49,32.20
2014,08,19,14,50,33.80
2014,08,19,14,51,33.80
2014,08,19,14,52,27.40
2014,08,19,14,53,32.20
2014,08,19,14,54,33.80
2014,08,19,14,55,30.60
2014,08,19,14,56,29.00
2014,08,19,14,57,33.80
2014,08,19,14,58,33.80
2014,08,19,14,59,30.60
2014,08,19,15,00,30.60
2014,08,19,15,01,38.60
2014,08,19,15,02,37.00
2014,08,19,15,03,37.00
2014,08,19,15,04,37.00
2014,08,19,15,05,33.80
2014,08,19,15,06,35.40
2014,08,19,15,07,35.40
2014,08,19,15,08,38.60
2014,08,19,15,09,37.00
2014,08,19,15,10,33.80
2014,08,19,15,11,43.50
2014,08,19,15,12,35.40
2014,08,19,15,13,40.20
2014,08,19,15,14,40.20
2014,08,19,15,15,41.80
2014,08,19,15,16,37.00
2014,08,19,15,17,37.00
2014,08,19,15,18,37.00
2014,08,19,15,19,35.40
2014,08,19,15,20,38.60
2014,08,19,15,21,38.60
2014,08,19,15,22,35.40
2014,08,19,15,23,35.40
2014,08,19,15,24,38.60
2014,08,19,15,25,41.80
2014,08,19,15,26,43.50
2014,08,19,15,27,43.50
2014,08,19,15,28,43.50
2014,08,19,15,29,43.50
2014,08,19,15,30,48.30
2014,08,19,15,31,45.10
2014,08,19,15,32,43.50
2014,08,19,15,33,40.20
2014,08,19,15,34,38.60
2014,08,19,15,35,37.00
2014,08,19,15,36,37.00
2014,08,19,15,37,37.00
2014,08,19,15,38,41.80
2014,08,19,15,39,37.00
2014,08,19,15,40,37.00
2014,08,19,15,41,37.00
2014,08,19,15,42,33.80
2014,08,19,15,43,30.60
2014,08,19,15,44,35.40
2014,08,19,15,45,32.20
2014,08,19,15,46,38.60
2014,08,19,15,47,41.80
2014,08,19,15,48,33.80
2014,08,19,15,49,35.40
2014,08,19,15,50,41.80
2014,08,19,15,51,40.20
2014,08,19,15,52,37.00
2014,08,19,15,53,40.20
2014,08,19,15,54,38.60
2014,08,19,15,55,30.60
2014,08,19,15,56,35.40
2014,08,19,15,57,30.60
2014,08,19,15,58,38.60
2014,08,19,15,59,32.20
2014,08,19,16,00,38.60
2014,08,19,16,01,40.20
2014,08,19,16,02,33.80
2014,08,19,16,03,40.20
2014,08,19,16,04,40.20
2014,08,19,16,05,48.30
2014,08,19,16,06,40.20
2014,08,19,16,07,40.20
2014,08,19,16,08,38.60
2014,08,19,16,09,40.20
2014,08,19,16,10,43.50
2014,08,19,16,11,40.20
2014,08,19,16,12,43.50
2014,08,19,16,13,45.10
2014,08,19,16,14,45.10
2014,08,19,16,15,45.10
2014,08,19,16,16,37.00
2014,08,19,16,17,40.20
2014,08,19,16,18,45.10
2014,08,19,16,19,40.20
2014,08,19,16,20,35.40
2014,08,19,16,21,40.20
2014,08,19,16,22,37.00
2014,08,19,16,23,40.20
2014,08,19,16,24,32.20
2014,08,19,16,25,30.60
2014,08,19,16,26,37.00
2014,08,19,16,27,43.50
2014,08,19,16,28,38.60
2014,08,19,16,29,37.00
2014,08,19,16,30,38.60
2014,08,19,16,31,40.20
2014,08,19,16,32,37.00
2014,08,19,16,33,38.60
2014,08,19,16,34,45.10
2014,08,19,16,35,41.80
2014,08,19,16,36,45.10
2014,08,19,16,37,40.20
2014,08,19,16,38,40.20
2014,08,19,16,39,46.70
2014,08,19,16,40,38.60
2014,08,19,16,41,38.60
2014,08,19,16,42,43.50
2014,08,19,16,43,45.10
2014,08,19,16,44,38.60
2014,08,19,16,45,43.50
2014,08,19,16,46,35.40
2014,08,19,16,47,45.10
2014,08,19,16,48,46.70
2014,08,19,16,49,49.90
2014,08,19,16,50,48.30
2014,08,19,16,51,49.90
2014,08,19,16,52,46.70
2014,08,19,16,53,45.10
2014,08,19,16,54,41.80
2014,08,19,16,55,48.30
2014,08,19,16,56,49.90
2014,08,19,16,57,45.10
2014,08,19,16,58,53.10
2014,08,19,16,59,53.10
2014,08,19,17,00,46.70
2014,08,19,17,01,43.50
2014,08,19,17,02,38.60
2014,08,19,17,03,45.10
2014,08,19,17,04,46.70
2014,08,19,17,05,48.30
2014,08,19,17,06,49.90
2014,08,19,17,07,46.70
2014,08,19,17,08,45.10
2014,08,19,17,09,41.80
2014,08,19,17,10,41.80
2014,08,19,17,11,48.30
2014,08,19,17,12,46.70
2014,08,19,17,13,41.80
2014,08,19,17,14,46.70
2014,08,19,17,15,41.80
2014,08,19,17,16,43.50
2014,08,19,17,17,35.40
2014,08,19,17,18,38.60
2014,08,19,17,19,40.20
2014,08,19,17,20,45.10
2014,08,19,17,21,45.10
2014,08,19,17,22,43.50
2014,08,19,17,23,40.20
2014,08,19,17,24,48.30
2014,08,19,17,25,53.10
2014,08,19,17,26,46.70
2014,08,19,17,27,43.50
2014,08,19,17,28,38.60
2014,08,19,17,29,46.70
2014,08,19,17,30,43.50
2014,08,19,17,31,41.80
2014,08,19,17,32,43.50
2014,08,19,17,33,41.80
2014,08,19,17,34,40.20
2014,08,19,17,35,40.20
2014,08,19,17,36,41.80
2014,08,19,17,37,45.10
2014,08,19,17,38,37.00
2014,08,19,17,39,41.80
2014,08,19,17,40,45.10
2014,08,19,17,41,43.50
2014,08,19,17,42,45.10
2014,08,19,17,43,45.10
2014,08,19,17,44,41.80